www.pogodaiklimat.ru

Погода и климат >> Архив погоды >> Россия >> Ямало-Ненецкий АО >> Тамбей


ПОГОДА в Тамбее

  • Прогноз погоды в Тамбее
  • Монитор погоды в Тамбее

АРХИВ ПОГОДЫ в Тамбее

Время (UTC), дата Ветер
(напр.,м/с)
 
Видим.   Явления Облачность Т
(С)
Тd
(С)
f
(%)
Тe
(С)
Тes
(С)
Комфортность P
(гПа)
Po
(гПа)
Тmin
(С)
Tmax
(С)
R
(мм)
R24
(мм)
S
(см)
03 11.06 З 6 н/о н/о -0.9 -1.5 96 -8 -8 1007.7 1006.7
06 11.06 З 6 н/о н/о +0.5 -0.5 93 -6 -6 1007.7 1006.7
09 11.06 З 7 н/о н/о +0.5 -0.6 92 -7 -7 1006.3 1005.3
12 11.06 З 6 н/о н/о +0.3 -0.6 94 -6 -6 1006.3 1005.3
15 11.06 З 6 н/о н/о -0.5 -0.8 98 -8 -8 1005.0 1004.0
18 11.06 З 7 н/о н/о -1.4 -0.9 104 -9 -9 1003.7 1002.7
21 11.06 З 5 н/о н/о -1.8 -1.3 104 -9 -9 1002.3 1001.3
00 12.06 ЮЗ 5 н/о н/о -1.8 -1.3 104 -9 -9 1001.0 1000.0
03 12.06 ЮЗ 4 н/о н/о -1.3 -0.9 103 -7 -7 999.7 998.7
06 12.06 ЮЗ 3 н/о н/о -0.2 -0.3 99 -5 -5 999.7 998.7
09 12.06 Ю 2 н/о н/о +0.3 -0.6 94 -3 -3 999.7 998.7
12 12.06 ЮВ 3 н/о н/о -0.8 -0.7 101 -6 -6 999.7 998.7
15 12.06 В 2 н/о н/о -1.6 -1.2 103 -6 -6 998.3 997.3
18 12.06 ЮВ 2 н/о н/о -0.7 -0.2 104 -5 -5 998.3 997.3
21 12.06 В 4 н/о н/о -1.5 -1.0 104 -8 -8 998.3 997.3
00 13.06 СВ 3 н/о н/о -1.4 -0.9 104 -7 -7 998.3 997.3
03 13.06 С 6 н/о н/о -1.0 -0.6 103 -8 -8 997.0 996.0
06 13.06 СВ 7 н/о н/о +0.3 +0.6 102 -7 -7 995.7 994.7
09 13.06 С 11
{14}
н/о н/о +0.2 +0.7 104 -9 -9 995.7 994.7
12 13.06 С 12
{15}
н/о н/о +0.3 +0.8 104 -9 -9 995.7 994.7
15 13.06 С 11
{16}
н/о н/о +0.3 +0.8 104 -8 -8 995.7 994.7
18 13.06 С 13
{18}
н/о н/о +0.3 +0.6 102 -9 -9 995.7 994.7
21 13.06 С 12
{18}
н/о н/о 0.0 +0.1 101 -9 -9 995.7 994.7
00 14.06 С 12
{18}
н/о н/о -1.1 -1.2 99 -11 -11 995.7 994.7
03 14.06 С 10
{16}
н/о н/о -0.7 -1.0 98 -9 -9 995.7 994.7
06 14.06 С 10
{16}
н/о н/о +0.5 -0.2 95 -8 -8 995.7 994.7
09 14.06 С 11
{15}
н/о н/о +0.4 -0.9 91 -8 -8 995.7 994.7
12 14.06 С 9
{15}
н/о н/о +0.4 -0.2 96 -8 -8 995.7 994.7
15 14.06 С 8
{14}
н/о н/о 0.0 -0.6 96 -8 -8 994.3 993.3
18 14.06 С 8 н/о н/о -1.2 -1.1 101 -9 -9 993.0 992.0
21 14.06 С 7 н/о н/о -1.7 -1.2 104 -10 -10 993.0 992.0
00 15.06 СЗ 6 н/о н/о -1.1 -0.7 103 -8 -8 993.0 992.0
03 15.06 С 6 н/о н/о 0.0 -0.8 94 -7 -7 993.0 992.0
06 15.06 СЗ 6 н/о н/о +1.0 -0.0 93 -6 -6 994.3 993.3
09 15.06 З 3 н/о н/о +1.2 +0.2 93 -3 -3 995.7 994.7
12 15.06 ЮЗ 5 н/о н/о +0.7 +1.0 102 -6 -6 995.7 994.7
15 15.06 ЮЗ 5 н/о н/о +0.6 +0.7 101 -6 -6 997.0 996.0
18 15.06 ЮЗ 5 н/о н/о +0.1 +0.6 104 -6 -6 997.0 996.0
21 15.06 ЮЗ 5 н/о н/о 0.0 +0.5 104 -6 -6 997.0 996.0
00 16.06 ЮЗ 5 н/о н/о +0.1 +0.1 100 -6 -6 997.0 996.0
03 16.06 Ю 7 н/о н/о +0.4 -0.5 94 -7 -7 997.0 996.0
06 16.06 Ю 6 н/о н/о +1.2 +0.6 96 -5 -5 997.0 996.0
09 16.06 Ю 6 н/о н/о +2.1 +1.1 93 -4 -4 997.0 996.0
12 16.06 Ю 7 н/о н/о +2.1 +1.2 94 -5 -5 997.0 996.0
15 16.06 Ю 7 н/о н/о +2.1 +1.4 95 -5 -5 997.0 996.0
18 16.06 Ю 6 н/о н/о +1.2 +0.9 98 -5 -5 997.0 996.0
21 16.06 ЮВ 4 н/о н/о -0.2 -0.1 101 -6 -6 997.0 996.0
00 17.06 ЮВ 6 н/о н/о +0.5 +0.6 101 -6 -6 995.7 994.7
03 17.06 ЮВ 8 н/о н/о +1.2 +0.6 96 -6 -6 994.3 993.3
06 17.06 ЮВ 10 н/о н/о +2.0 +1.3 95 -6 -6 994.3 993.3
09 17.06 ЮВ 9 н/о н/о +2.0 +2.0 100 -6 -6 993.0 992.0
12 17.06 Ю 5 н/о н/о +0.9 +1.3 103 -5 -5 994.3 993.3
15 17.06 Ю 6 н/о н/о +1.5 +1.6 101 -5 -5 994.3 993.3
18 17.06 Ю 7 н/о н/о +1.1 +1.0 99 -6 994.3 993.3
21 17.06 Ю 6 н/о н/о +0.9 +1.0 101 -6 995.7 994.7
00 18.06 Ю 5 н/о н/о +1.0 +1.1 101 -5 995.7 994.7

 

Местоположение метеостанции Тамбей (Ямало-Ненецкий АО, Россия): широта 71.48 долгота 71.82 высота над уровнем моря 8 м.

В архиве по умолчанию представлена погода в Тамбее за последнюю неделю. Архивные данные за месяц целиком и за предыдущие месяцы, начиная с января 2011 года, Вы можете получить, выбрав интересующий диапазон дат из раскрывающегося списка и нажав кнопку "Ввод!".


*Определитесь, кто Вы:
робот инопланетянин человек

Внимание! Время в таблицах - всемирное. Для получения местного времени необходимо прибавить поправку, которая равна 5 ч.

Смотрите также архив погоды в соседних городах и на ближайших метеорологических станциях:

Погода в Сеяхе (Ямало-Ненецкий АО, Россия) (148 км)
Погода в Имени Попова (Ямало-Ненецкий АО, Россия) (214 км)
Погода в Гыде (Ямало-Ненецкий АО, Россия) (248 км)
Погода в Марресале (Ямало-Ненецкий АО, Россия) (270 км)
Погода в Антипаюте (Ямало-Ненецкий АО, Россия) (327 км)
Погода в Усть-Каре (Ненецкий АО, Россия) (357 км)
Погода на Острове Диксон (Красноярский край, Россия) (365 км)
Погода в Сопочной Карге (Красноярский край, Россия) (382 км)
Погода в Амдерме (Ненецкий АО, Россия) (419 км)
Погода в Новом Порте (Ямало-Ненецкий АО, Россия) (425 км)

Пояснения к столбцам:

Ветер - указаны скорость ветра в м/с - средняя за 10 мин, порывы в срок и между сроками (в фигурных скобках) и направление, откуда дует ветер: С - северный, СВ - северо-восточный, В - восточный, ЮВ - юго-восточный, Ю - южный, ЮЗ - юго-западный, З - западный, СЗ - северо-западный.
Видимость - горизонтальная дальность видимости в метрах или километрах. При видимости от 1 до 10 км при отсутствии осадков обычно наблюдается дымка, при ухудшении видимости до 1 км и менее - туман. В сухую погоду видимость может ухудшаться дымом, пылью или мглою.
Явления - указаны атмосферные явления, наблюдавшиеся в срок или в последний час перед сроком; фигурными скобками обозначены явления, наблюдавшиеся между сроками (за 1-3 часа до срока); квадратными скобками обозначены град или гололедные отложения с указанием их диаметра в мм.
Облачность - указаны через наклонную черту общая и нижняя облачность в баллах и высота нижней границы облаков в метрах; квадратными скобками обозначены формы облаков: Ci - перистые, Cs - перисто-слоистые, Cc - перисто-кучевые, Ac - высококучевые, As - высокослоистые, Sc - слоисто-кучевые, Ns - слоисто-дождевые, Cu - кучевые, Cb - кучево-дождевые. Подробнее классификацию облаков см. в Атласе облаков (PDF).
T - Температура воздуха - температура, измеренная на высоте 2 м над землей.
Td - Температура точки росы - температура, при понижении до которой содержащийся в воздухе водяной пар достигнет насыщения.
f - Относительная влажность воздуха - влажноcть воздуха, измеренная на высоте 2 м над землей.
Te - Эффективная температура - температура, которую ощущает одетый по сезону человек в тени. Характеристика душности погоды. При расчете учитывается влияние влажности воздуха и скорости ветра на теплоощущения человека.
Tes - Эффективная температура на солнце - температура, которую ощущает человек, с поправкой на солнечный нагрев. Характеристика знойности погоды. Зависит от высоты солнца над горизонтом, облачности и скорости ветра. Ночью, в пасмурную погоду, а также при ветре 12 м/с и более поправка равна нулю.
P - Атмосферное давление - приведенное к уровню моря атмосферное давление.
Po - Атмосферное давление - измеренное на уровне метеостанции атмосферное давление.
Tmin - Минимальная температура - минимум температуры воздуха на высоте 2 м над землей.
Tmax - Максимальная температура - максимум температуры воздуха на высоте 2 м над землей.
R - Количество осадков - Количество выпавших осадков за период времени, мм. При наведении курсора мыши на число - период времени, за который выпало указанное количество осадков.
R24 - Количество осадков - Количество выпавших осадков за 24 часа, мм.
S - Снежный покров - Высота снежного покрова, см. При наведении курсора мыши на число - состояние снежного покрова и степень покрытия местности в баллах.